Regional Weather Roundup
Issued by NWS Boston, MA

Current Version | Previous Version | Text Only | Print | Product List | Glossary Off
Versions: 1 2 3 4 5 6 7 8 9 10 11 12 13 14 15 16 17 18 19 20 21 22 23 24 25 26 27 28 29 30 31 32 33 34 35 36 37 38 39 40 41 42 43 44 45 46 47 48 49 50
597 ASUS41 KBOX 281610 RWRBOX REGIONAL WEATHER ROUNDUP NATIONAL WEATHER SERVICE TAUNTON MA 1100 AM EST TUE FEB 28 2017 NOTE: "FAIR" INDICATES FEW OR NO CLOUDS BELOW 12,000 FEET WITH NO SIGNIFICANT WEATHER AND/OR OBSTRUCTIONS TO VISIBILITY. MAZALL-281700- EASTERN MASSACHUSETTS CITY SKY/WX TMP DP RH WIND PRES REMARKS BOSTON CLOUDY 48 36 63 CALM 30.38F BEVERLY PTSUNNY 50 30 46 CALM 30.38F LAWRENCE CLOUDY 47 28 47 CALM 30.40F BEDFORD CLOUDY 50 29 44 CALM 30.36F BLUE HILL N/A 49 30 48 VRB3 30.35F NORWOOD MOSUNNY 52 33 48 VRB3 30.37F MARSHFIELD CLOUDY 48 36 61 E5 30.38F PLYMOUTH CLOUDY 52 33 48 CALM 30.38F TAUNTON CLOUDY 52 34 50 E3 30.37F NEW BEDFORD CLOUDY 50 38 63 S9 30.38F $$ MAZALL-281700- CAPE COD AND THE ISLANDS CITY SKY/WX TMP DP RH WIND PRES REMARKS FALMOUTH CLOUDY 50 39 66 MISG 30.40S HYANNIS CLOUDY 46 41 82 S6 30.39S CHATHAM MOSUNNY 48 42 80 S6 30.41S PROVINCETOWN CLOUDY 50 35 56 CALM 30.40F NANTUCKET CLOUDY 49 40 71 SE10 30.40F MARTHAS VNYRD PTSUNNY 51 42 71 SE9 30.39F $$ MAZALL-281700- CENTRAL AND WESTERN MASSACHUSETTS CITY SKY/WX TMP DP RH WIND PRES REMARKS WORCESTER CLOUDY 47 30 51 E5 30.34F FITCHBURG MOSUNNY 50 29 44 CALM 30.36F ORANGE MOSUNNY 45 31 58 CALM 30.34F SPRINGFIELD PTSUNNY 48 32 54 CALM 30.33F WESTFIELD CLOUDY 48 32 53 W3 30.34F NORTH ADAMS MOSUNNY 49 31 49 VRB7 30.31F PITTSFIELD MOSUNNY 50 35 56 VRB5 30.29F $$ RIZALL-281700- RHODE ISLAND CITY SKY/WX TMP DP RH WIND PRES REMARKS PROVIDENCE CLOUDY 49 37 63 S7 30.37F NEWPORT CLOUDY 46 43 89 SE8 30.37F BLOCK ISLAND CLOUDY 46 45 93 VRB5 30.38F SMITHFIELD CLOUDY 51 33 50 SE3 30.36F WESTERLY LGT RAIN 47 40 76 SE12 30.38F $$ CTZALL-281700- CONNECTICUT CITY SKY/WX TMP DP RH WIND PRES REMARKS BRADLEY INTL PTSUNNY 51 33 50 CALM 30.34F HARTFORD PTSUNNY 51 36 56 CALM 30.34F BRIDGEPORT PTSUNNY 48 38 68 E12 30.35F DANBURY CLOUDY 54 32 43 S7 30.34F GROTON LGT RAIN 46 42 86 E13 30.36F NEW HAVEN PTSUNNY 50 39 66 E12 30.34F CHESTER PTSUNNY 52 37 58 SE7 30.35F MERIDEN PTSUNNY 53 35 50 S7 30.34F WILLIMANTIC CLOUDY 49 36 61 CALM 30.36F OXFORD PTSUNNY 52 30 43 S7 30.34F $$ MEZ002-015-021-024-NHZ003-005-008-011-012-014-VTZ005-008-281700- NORTHERN NEW ENGLAND CITY SKY/WX TMP DP RH WIND PRES REMARKS PORTLAND ME PTSUNNY 44 24 45 NE5 30.40F BANGOR ME MOSUNNY 43 25 49 CALM 30.40F CONCORD NH CLOUDY 44 25 47 CALM 30.37F MANCHESTER NH CLOUDY 45 24 43 N8 30.36F NASHUA NH CLOUDY 47 29 49 CALM 30.38F PORTSMOUTH NH CLOUDY 45 26 48 CALM 30.37F JAFFREY NH CLOUDY 44 27 51 CALM 30.34F KEENE NH CLOUDY 41 27 57 CALM 30.35F BURLINGTON VT MOSUNNY 48 26 42 SW10 30.30F MT. WASHINGTON PTSUNNY 21 16 79 S9 N/A WCI 11 $$ NYZ052-076-281700- EASTERN NEW YORK CITY SKY/WX TMP DP RH WIND PRES REMARKS ALBANY PTSUNNY 52 34 50 CALM 30.32F NEW YORK CITY MOSUNNY 49 39 68 NE12 30.34F $$ ANZALL-281700- MARINE OBSERVATIONS STATION/POSITION TIME TEMP WIND PRES VSBY WAVE AIR SEA DIR/SP/G HT/PER (UTC) (F) (DEG/KT/KT) (MB) (MI) (FT/S) BOSTON BUOY 1550 43 42 110/ 4/ 4 1028.1F 1 BUZZARDS BAY 1500 43 120/ 8/ 9 1029.9R NANTUCKET SOUND 1550 43 40 110/ 4/ 6 1029.3F 1 MASS BAY-STELLWA 1504 42 42 200/ 4/ 8 1028.6F ISLE OF SHOALS 1500 40 200/ 3/ 3 1029.4F S OF BLOCK IS 1555 43 N/A 3/ 5 $$ ......................KEY......................... SKY/WX - SKY CONDITION/PRESENT WEATHER TMP - TEMPERATURE IN FAHRENHEIT DWPT - DEWPOINT IN FAHRENHEIT RH - RELATIVE HUMIDITY IN PERCENT WIND - DIRECTION AND SPEED IN MPH PRES - MEAN SEA LEVEL PRESSURE IN INCHES OF HG WCI - WIND CHILL INDEX VSB - VISIBILITY IN MILES HX - HEAT INDEX TC - TEMPERATURE IN CELSIUS VRB - VARIABLE WIND DIRECTION N/A - NOT AVAILABLE

USA.gov is the U.S. government's official web portal to all federal, state and local government web resources and services.